Theta_e
315 314 315 316 318 320 322 324 324 325 324 325 325 323 321 320 319 319 319 319 317 317 317 318 319 320 315 305 305 315 322 322 322 321 315 312 304 301 296 298 299 298 301 304 307 308 308
312 312 313 314 315 316 319 321 324 324 324 323 325 324 322 320 319 319 319 319 318 317 317 317 317 319 308 293 309 312 312 312 315 315 313 313 307 306 301 299 297 299 300 301 304 305 306
311 311 311 311 313 313 314 317 321 323 323 323 324 324 323 322 320 319 319 319 319 318 317 316 317 314 305 300 309 310 311 309 310 313 309 312 312 306 306 300 303 301 296 299 300 302 302
310 310 310 311 310 311 313 314 316 317 322 322 324 324 323 322 321 319 319 319 318 319 318 317 317 309 297 311 311 309 309 307 309 308 307 309 313 305 303 305 301 296 293 288 296 301 303
308 309 309 309 310 310 311 312 314 316 318 321 322 322 323 322 321 319 320 319 317 317 318 318 308 302 294 311 307 308 308 305 304 304 305 309 307 301 301 297 293 294 286 287 292 301 302
308 307 307 307 308 309 310 311 312 313 315 318 321 321 321 321 320 319 319 318 316 315 315 315 310 299 301 299 305 307 307 307 302 301 300 300 300 295 295 293 283 284 286 286 288 296 297
307 307 307 306 306 308 309 309 310 312 313 316 318 320 320 320 320 319 315 305 298 296 305 301 300 299 300 305 308 305 306 303 301 297 289 293 290 288 291 291 291 290 288 286 290 296 293
307 307 306 307 306 308 308 309 309 310 312 313 314 319 319 320 320 319 307 298 297 299 293 302 303 302 304 306 299 302 306 297 296 290 291 290 285 290 292 291 289 289 287 287 290 294 293
306 306 306 306 306 307 308 309 309 309 311 312 313 317 318 319 318 313 306 302 306 302 291 295 300 301 302 304 298 299 302 297 292 290 289 287 288 293 291 289 288 287 285 286 286 290 292
306 306 306 305 305 307 307 308 308 309 310 313 311 315 317 318 310 308 304 307 306 304 277 286 293 298 302 302 296 304 304 299 295 290 291 291 294 291 289 287 289 284 291 290 289 286 280
306 306 305 305 305 305 307 308 307 308 309 310 312 314 316 316 305 303 305 306 305 296 267 288 292 304 303 297 298 297 305 300 292 291 290 287 288 288 286 288 291 287 292 290 290 287 284
306 306 305 304 304 305 306 307 307 308 309 310 311 312 316 308 306 306 308 307 302 277 268 287 293 293 293 296 296 298 298 303 300 294 292 289 293 292 290 292 292 294 290 289 290 286 279
305 305 305 304 304 305 306 306 306 309 309 310 310 312 313 310 301 308 308 300 280 270 287 286 288 291 290 290 292 294 291 291 289 285 284 288 289 292 293 288 291 290 286 279 278 278 276
305 305 305 304 304 305 305 306 306 309 309 308 310 311 309 310 309 308 303 289 273 282 283 291 290 289 286 289 290 291 290 286 291 289 285 281 279 289 292 289 287 287 285 279 273 273 275
305 305 304 304 304 304 304 306 306 307 308 308 309 304 305 308 309 308 296 280 278 282 289 288 289 286 286 290 290 288 288 286 289 290 282 279 280 289 291 292 292 287 283 288 282 283 280
305 305 304 304 304 303 304 306 307 307 308 308 303 300 303 310 310 303 290 281 283 291 292 291 283 287 283 285 286 285 285 288 288 290 292 286 278 286 289 291 291 288 290 282 283 274 273
304 304 304 304 303 302 303 306 306 307 308 308 301 294 305 310 307 296 285 282 287 295 295 290 287 287 286 284 285 285 284 287 291 290 292 290 282 280 286 285 284 286 284 286 285 280 272
304 304 304 303 302 302 303 305 306 306 307 305 299 287 306 307 292 293 288 289 294 294 296 294 292 291 289 286 284 283 282 286 292 292 287 290 286 279 282 290 292 290 286 285 281 274 279
304 304 304 303 301 302 302 304 306 306 307 300 295 295 306 304 285 287 291 291 293 293 293 293 291 293 294 287 283 285 286 292 293 291 288 291 285 279 282 286 289 286 287 287 286 286 279
303 303 303 302 301 302 304 304 305 306 307 302 297 286 296 298 297 290 289 288 289 295 294 295 293 295 292 289 289 286 287 292 294 294 298 294 287 283 279 283 286 284 286 288 285 280 281
303 303 303 302 301 301 302 304 305 305 305 302 296 291 293 287 290 291 290 292 289 290 294 296 293 293 292 287 287 287 290 291 295 298 295 292 283 285 286 287 287 287 286 287 285 285 281
302 302 302 302 302 301 301 303 304 305 305 301 295 295 297 293 294 292 291 290 291 291 293 291 291 293 292 290 287 284 289 290 290 294 292 292 283 285 284 288 287 286 288 289 288 288 288
302 302 302 302 301 300 301 304 305 305 304 297 299 303 297 293 292 291 291 291 292 295 295 296 295 293 292 294 296 295 294 295 295 293 291 288 285 285 284 290 288 284 287 290 290 292 291
302 302 302 301 301 300 300 302 304 305 304 300 300 298 297 290 292 292 294 294 293 294 293 296 297 295 297 300 300 297 296 295 294 294 294 289 288 287 285 286 281 290 298 296 293 294 294
302 302 302 301 301 300 300 301 303 305 305 301 302 301 297 292 294 294 294 294 295 296 294 294 297 300 302 299 292 290 289 289 291 291 292 293 292 288 284 281 287 290 295 293 290 290 296
302 302 301 301 300 300 300 301 303 304 304 302 301 305 300 294 294 298 295 295 293 292 292 296 300 302 301 296 293 286 283 287 284 286 292 293 292 290 285 279 280 286 292 298 297 287 297
302 301 301 301 300 299 301 301 302 303 304 303 301 306 301 294 296 297 294 294 296 293 290 292 294 296 299 293 289 286 285 288 285 283 287 290 290 286 286 284 284 291 292 293 284 287 291
301 301 300 300 300 300 300 300 302 303 304 303 301 305 303 298 298 300 300 296 295 294 291 294 294 295 294 291 290 289 287 287 283 285 286 286 284 283 286 280 278 291 291 287 290 290 292
300 301 300 300 300 300 300 300 302 302 303 304 300 306 307 301 299 303 302 301 302 301 297 297 296 296 297 293 292 291 290 287 285 282 287 286 290 288 287 286 292 292 291 293 293 292 290
Wind_Speed
24 25 25 25 25 26 27 17 16 16 15 15 16 16 14 13 12 12 10 8 6 4 2 1 1 0 2 2 7 4 4 7 3 10 7 5 3 2 3 3 3 5 3 5 7 8 9
22 24 26 27 27 26 27 24 20 16 16 16 14 15 14 14 13 12 10 9 7 5 2 1 1 3 1 4 4 4 4 6 5 5 5 7 5 5 4 4 4 3 4 6 5 8 7
24 23 23 24 26 27 26 27 30 17 17 17 16 14 16 15 13 12 10 9 8 6 4 2 1 1 1 11 1 4 6 2 1 3 4 4 4 1 1 3 3 4 6 6 6 5 7
26 26 25 27 25 26 27 26 26 23 22 20 17 17 16 15 14 13 11 10 5 5 5 4 1 2 7 4 3 6 2 1 4 3 2 4 6 4 4 6 3 3 2 2 3 10 7
25 27 27 25 27 27 27 27 26 26 26 22 19 19 17 18 15 13 11 9 5 3 5 5 2 1 8 6 2 5 4 4 4 3 2 3 4 3 2 3 6 5 7 4 5 6 5
24 26 28 27 25 27 28 28 28 26 25 23 22 18 20 19 16 13 9 9 4 1 3 4 2 2 4 3 3 2 4 5 2 4 2 4 4 4 3 6 10 4 4 3 5 4 3
26 28 26 26 26 28 28 27 28 28 25 23 24 19 20 20 17 15 10 6 4 2 5 7 6 4 2 2 3 2 4 6 3 4 5 1 5 10 12 10 7 5 5 5 5 7 6
25 26 27 30 28 29 30 27 27 28 24 26 25 21 20 20 19 17 8 5 5 3 3 14 7 12 4 3 0 3 6 6 5 6 5 1 11 7 5 6 9 11 13 16 8 9 9
25 26 29 26 27 30 30 30 26 27 25 23 20 23 20 22 20 13 11 6 4 1 1 5 6 7 6 5 6 6 10 6 5 8 7 13 4 9 10 10 10 10 12 10 14 9 13
26 27 26 29 26 29 26 34 26 24 25 21 19 27 18 22 13 10 7 7 5 3 4 5 5 5 5 5 6 13 12 6 5 11 11 13 14 15 10 13 11 19 9 13 12 6 7
27 28 29 28 28 29 28 29 25 28 30 25 20 26 15 23 13 8 9 10 6 6 2 3 3 2 4 9 3 0 8 8 12 9 7 7 6 13 19 15 12 10 7 10 10 7 8
26 29 28 27 27 29 26 29 31 36 26 20 17 20 17 9 4 7 16 12 5 7 8 6 5 6 5 4 1 3 4 6 2 9 14 10 4 6 8 12 16 1 9 7 7 8 16
25 26 28 29 29 28 26 29 35 33 26 12 12 13 12 12 8 15 16 8 5 5 1 6 6 6 5 6 5 6 5 10 6 7 8 4 15 3 4 5 9 12 5 3 5 8 8
27 26 25 29 29 28 29 29 35 32 21 8 13 11 12 7 15 19 10 4 4 5 5 2 5 6 6 8 5 9 6 10 14 6 2 8 6 14 8 9 7 16 16 6 6 5 5
28 27 25 26 29 28 29 31 34 30 15 9 6 2 6 10 19 13 12 3 9 6 6 10 8 5 7 8 4 8 12 11 9 16 10 3 6 4 8 15 6 5 13 19 9 8 5
26 26 27 25 26 27 28 29 33 26 17 13 1 3 7 19 18 11 7 5 4 3 6 6 7 9 7 8 10 8 6 4 7 12 10 5 5 6 9 5 10 17 7 5 7 5 8
26 26 26 27 25 26 27 28 29 28 22 12 3 1 5 15 10 9 6 6 4 4 6 6 6 7 7 6 8 7 6 5 9 9 16 6 5 2 3 11 15 8 14 7 4 5 4
25 25 25 25 25 25 26 28 31 26 25 2 4 2 11 14 8 5 6 7 5 5 3 2 2 8 9 8 8 6 9 8 10 10 12 12 4 7 14 3 14 13 14 17 4 5 7
25 25 24 24 25 24 25 26 30 27 23 4 4 3 9 10 6 7 5 3 4 4 6 6 7 9 10 8 4 8 5 8 12 14 13 10 5 5 3 6 12 9 12 17 15 3 9
25 24 22 22 24 24 24 26 29 27 23 8 3 3 5 6 1 11 8 6 6 4 6 9 4 9 7 8 7 3 6 4 13 11 14 11 5 9 9 3 3 8 16 21 19 11 14
25 24 22 21 22 23 23 26 29 25 26 4 2 4 5 8 5 12 8 8 10 7 7 9 5 10 6 7 6 10 8 10 3 9 10 8 8 10 17 18 14 6 15 23 25 24 16
24 24 23 19 22 23 23 24 27 25 30 1 3 4 3 9 8 12 13 9 12 11 7 6 9 7 14 8 8 4 4 4 4 5 9 5 5 4 16 24 26 15 17 19 23 20 23
25 23 23 20 19 22 23 23 26 23 20 3 5 2 2 12 14 10 8 8 13 7 9 10 10 11 10 14 17 19 8 9 6 9 11 5 3 3 6 3 7 7 22 23 22 18 16
25 23 22 19 19 20 21 22 24 19 17 5 2 2 2 6 11 14 9 10 6 8 7 5 9 8 2 5 4 5 7 9 7 10 11 8 5 4 4 3 1 5 5 15 18 13 11
24 24 22 20 20 20 22 23 25 22 23 7 3 3 1 5 9 11 11 5 8 12 15 13 7 4 4 3 2 4 1 4 7 8 13 8 3 4 3 3 3 6 8 10 9 10 14
24 23 20 19 20 20 21 21 24 23 24 10 5 2 3 4 7 6 12 5 4 4 1 5 2 4 3 2 3 4 4 3 5 4 5 4 5 2 3 3 4 2 7 11 10 5 21
24 22 20 20 19 20 21 22 24 23 24 12 4 4 2 4 1 5 3 5 4 2 1 0 1 2 7 6 5 4 4 0 4 3 2 2 2 2 2 3 7 3 2 8 6 6 4
23 22 18 18 18 19 20 20 22 21 24 12 7 5 2 1 2 3 4 5 3 3 4 3 1 4 4 6 4 3 4 5 2 2 4 5 4 3 2 1 4 2 1 5 3 2 2
20 21 19 18 18 18 20 20 21 20 22 20 3 3 3 2 1 1 3 1 5 6 4 3 2 2 3 2 2 3 3 2 3 3 1 4 5 4 7 6 3 3 2 2 1 3 2
Wind_Direction
352 347 338 339 337 340 348 281 273 269 268 260 237 222 223 229 237 239 242 243 242 229 227 302 332 14 126 202 247 283 359 8 105 148 161 138 142 147 222 246 272 227 252 276 276 271 278
352 347 345 343 339 331 338 330 287 269 264 265 247 222 218 223 227 237 231 243 241 231 210 249 340 102 116 230 242 296 336 352 93 112 158 161 195 196 284 252 211 278 265 266 275 273 264
349 343 342 339 339 335 327 333 339 275 268 260 257 224 211 213 219 225 221 233 237 226 211 231 139 96 209 242 257 66 32 3 341 142 142 201 171 168 328 281 274 269 297 291 232 231 250
347 344 344 340 333 332 332 327 327 327 297 261 249 231 213 205 208 217 215 228 222 229 202 208 140 96 245 267 286 288 149 248 232 228 158 154 173 212 227 301 310 297 261 284 251 196 228
346 341 337 338 335 331 328 326 321 324 321 273 257 236 213 199 197 204 214 203 187 206 196 183 68 102 266 310 184 242 153 153 153 175 198 217 138 208 215 245 279 195 258 213 321 220 226
345 342 334 329 334 330 325 321 322 317 316 316 268 251 219 191 189 191 201 174 133 82 219 174 346 327 257 221 199 204 172 151 129 110 86 167 157 194 173 198 233 245 256 248 220 206 278
345 338 336 327 327 329 324 320 314 319 312 309 305 256 217 189 180 176 145 102 64 305 243 212 187 248 212 228 132 138 148 115 107 93 175 223 201 205 208 222 251 299 281 283 314 297 335
339 335 334 336 332 327 322 320 313 315 309 311 316 266 224 188 177 164 134 161 199 173 236 238 245 233 301 26 17 156 136 149 161 192 135 291 244 222 219 210 238 249 260 264 281 267 279
336 332 339 331 330 322 334 321 315 313 311 304 298 274 234 187 163 152 179 168 145 117 277 264 205 224 221 202 229 212 163 150 178 197 189 218 207 203 227 246 237 238 241 251 255 289 279
334 336 337 331 327 327 328 322 319 318 320 300 307 289 260 172 157 147 180 158 139 84 41 241 199 235 171 176 256 210 183 154 192 206 215 245 240 239 260 236 217 253 211 231 247 245 252
336 332 339 336 328 326 328 330 329 326 317 308 295 294 269 157 133 165 158 138 128 60 11 161 158 345 157 177 136 198 198 202 219 187 161 221 205 216 228 230 200 246 219 225 228 233 273
328 332 336 329 328 320 335 338 332 321 306 291 287 289 213 126 121 137 134 126 82 56 254 174 133 167 157 209 206 111 173 202 66 225 219 231 188 191 218 232 216 215 229 262 241 229 247
328 329 331 330 324 329 342 341 327 319 314 264 310 290 242 149 163 143 133 122 94 168 159 175 177 171 189 181 203 192 171 199 207 197 217 215 232 235 254 188 189 200 230 232 221 210 238
330 329 329 329 326 335 339 340 326 331 312 308 319 270 282 137 131 146 140 103 143 188 183 173 128 141 189 167 209 201 222 225 222 215 251 219 230 195 200 213 171 191 200 211 212 223 230
327 328 330 329 331 339 338 337 335 333 324 307 329 44 284 146 144 160 148 162 199 192 155 150 144 180 201 202 199 201 224 233 207 195 219 198 257 166 224 211 178 170 211 217 261 277 266
328 327 329 328 337 337 335 339 339 340 337 349 128 61 245 155 149 158 157 197 210 176 123 151 180 196 196 193 190 191 199 227 217 186 183 223 265 202 205 148 206 217 151 189 197 211 245
331 329 327 332 339 338 336 340 341 344 339 320 144 324 185 142 129 165 185 203 193 178 135 163 199 184 215 179 199 187 225 257 201 191 180 191 176 283 104 206 191 189 227 218 257 195 214
332 331 327 335 337 338 336 338 340 355 344 332 100 219 158 155 155 177 159 167 199 156 123 174 219 231 197 187 187 217 218 225 173 144 185 209 226 233 224 204 220 207 205 206 216 229 236
333 335 330 334 335 337 333 342 343 356 347 315 169 202 160 159 160 167 148 140 175 140 169 208 217 212 199 201 210 203 194 225 173 166 177 162 227 259 235 214 215 210 218 215 223 309 217
336 337 334 335 332 339 336 343 344 352 332 320 136 142 131 190 201 162 156 188 190 204 216 209 266 208 190 228 224 264 239 254 179 183 135 158 233 224 232 217 172 201 207 201 206 229 237
337 339 336 336 333 339 338 344 345 342 342 298 112 178 177 174 206 167 177 175 189 190 210 213 230 233 220 222 223 233 241 262 182 178 165 192 250 238 251 251 234 227 217 198 207 216 218
334 338 336 335 337 338 341 342 341 353 345 309 188 161 163 156 154 162 182 202 198 198 207 203 230 217 218 235 212 216 166 189 195 168 184 192 265 256 281 261 234 219 218 214 209 219 238
335 339 335 341 341 341 337 343 342 2 356 308 299 352 130 160 174 177 187 189 209 160 209 234 213 234 252 232 234 250 261 267 199 187 190 204 250 268 263 58 121 219 223 210 200 213 218
335 338 338 342 340 340 338 340 341 354 351 291 276 281 177 160 185 198 167 198 198 224 229 234 223 221 234 1 296 238 238 245 224 210 177 188 205 214 286 305 346 261 210 189 190 191 211
335 336 343 339 340 340 338 340 342 350 342 321 276 258 252 137 179 178 200 189 219 242 243 243 212 230 114 312 270 281 161 318 244 209 202 220 272 299 321 287 258 63 137 171 166 237 231
336 334 340 337 337 338 337 338 340 347 342 334 282 155 269 125 193 139 184 170 186 210 288 207 42 127 128 243 210 234 227 196 282 305 163 189 216 227 347 340 25 29 151 168 172 276 201
333 336 340 337 334 336 339 339 338 347 344 332 277 268 294 98 220 126 160 170 163 128 197 139 293 250 194 191 208 224 239 351 199 214 233 227 204 226 299 311 292 262 120 114 148 258 137
333 332 335 334 332 334 334 339 336 348 344 342 285 292 326 82 149 176 165 136 120 164 171 152 207 205 182 196 183 207 216 222 209 225 180 178 160 207 130 282 326 357 119 181 230 33 289
329 330 327 334 330 331 331 338 336 350 344 346 310 283 244 93 114 315 281 259 180 182 153 186 208 243 250 142 187 215 200 147 170 252 129 232 189 187 174 216 263 301 300 355 174 148 143